Regional Weather Roundup
Issued by NWS

Home | Current Version | Previous Version | Text Only | Print | Product List | Glossary Off
Versions: 1 2 3 4 5 6 7 8 9 10 11 12 13 14 15 16 17 18 19 20 21 22 23 24 25 26 27

000
ASUS45 KSLC 280610
RWRUT

UTAH REGIONAL WEATHER ROUNDUP
NATIONAL WEATHER SERVICE SALT LAKE CITY UT
1200 AM MDT WED SEP 28 2016

UTZ001>011-023>025-280700-

NORTHERN UTAH

CITY           SKY/WX    TMP DP  RH WIND       PRES   REMARKS
BRIGHAM CITY     N/A     57  50  76 CALM      30.16S
HILL AFB       CLEAR     61  43  52 E15       30.16F
LOGAN          CLEAR     54  47  77 NE3       30.16S
OGDEN          CLEAR     58  46  64 S7        30.15R
PROVO AIRPORT  CLEAR     54  48  80 E3        30.17R
SALT LAKE CITY CLEAR     61  51  70 CALM      30.14S
VERNAL         CLEAR     54  43  66 W5        30.21S
WENDOVER       CLEAR     55  45  67 CALM      30.15S
HEBER CITY     CLEAR     46  39  76 CALM      30.23R
WEST JORDAN    CLEAR     57  48  71 CALM      30.17S

$$

UTZ012>022-026-027-280700-

SOUTHERN/CENTRAL UTAH

CITY           SKY/WX    TMP DP  RH WIND       PRES   REMARKS
BLANDING       CLEAR     58  33  38 N7        30.30R
BRYCE CANYON   PTCLDY    42  35  76 W5        30.34S
CEDAR CITY     PTCLDY    59  34  39 SE9       30.20R
DELTA          CLEAR     54  45  71 CALM      30.15R
MILFORD        CLEAR     57  37  47 SW3       30.16S
MOAB/CYNLANDS  CLEAR     59  37  44 SW3       30.13S
PRICE          CLEAR     54  39  57 N9        30.23S
ST GEORGE      CLEAR     72  43  35 E12       30.06S

$$

REGIONAL REPORTS     COLORADO/ARIZONA

CITY           SKY/WX    TMP DP  RH WIND       PRES   REMARKS
CRAIG, CO      CLEAR     40  35  83 CALM      30.29S
GRAND JUNCTION CLEAR     60  37  42 SE3       30.17S
RIFLE          CLEAR     54  39  57 E3        30.24R
MONTROSE       CLEAR     54  38  54 SE7       30.27R
CORTEZ         CLEAR     50  38  63 NE5       30.25R
PAGE, AZ       PTCLDY    70  36  28 S8        30.14R
GRAND CANYON   MOCLDY    59  40  49 E8        30.26F
KINGMAN        CLOUDY    67  48  50 SE12      30.09R
FLAGSTAFF      RAIN      48  47  96 NE10      30.32S FOG

$$

REGIONAL REPORTS    NEVADA/IDAHO/WYOMING

CITY           SKY/WX    TMP DP  RH WIND       PRES   REMARKS
LAS VEGAS, NV  MOCLDY    79  39  23 S6        29.97R
ELY            CLEAR     46  30  53 S9        30.24R
ELKO           CLEAR     56  40  55 E5        30.14R
POCATELLO, ID  CLEAR     51  46  83 CALM      30.15S
BURLEY         CLEAR     51  48  89 CALM      30.10S
EVANSTON, WY   CLEAR     55  37  50 SE3       30.32S
ROCK SPRINGS   CLEAR     54  37  52 S7        30.30S

$$




USA.gov is the U.S. government's official web portal to all federal, state and local government web resources and services.